owner,sensor,date,latitude,longitude,sea_surface_height_above_sea_level,qcFlag 
COMPS,ioos:station:USF.COMPS:EGK:1,2009-06-01T00:00:00Z,27.6010,-82.7510,0.0,1114422 
COMPS,ioos:station:USF.COMPS:EGK:1,2009-06-01T00:06:00Z,27.6010,-82.7510,0.0,1114422 
COMPS,ioos:station:USF.COMPS:EGK:1,2009-06-01T00:12:00Z,27.6010,-82.7510,-0.004,1111122 
COMPS,ioos:station:USF.COMPS:EGK:1,2009-06-01T00:18:00Z,27.6010,-82.7510,-0.007,1111122 
COMPS,ioos:station:USF.COMPS:EGK:1,2009-06-01T00:24:00Z,27.6010,-82.7510,-0.006,1111122 
COMPS,ioos:station:USF.COMPS:EGK:1,2009-06-01T00:30:00Z,27.6010,-82.7510,-0.008,1111122 
COMPS,ioos:station:USF.COMPS:EGK:1,2009-06-01T00:36:00Z,27.6010,-82.7510,-0.008,1111122 
COMPS,ioos:station:USF.COMPS:EGK:1,2009-06-01T00:42:00Z,27.6010,-82.7510,-0.01,1111122 
COMPS,ioos:station:USF.COMPS:EGK:1,2009-06-01T00:48:00Z,27.6010,-82.7510,-0.015,1111122 
COMPS,ioos:station:USF.COMPS:EGK:1,2009-06-01T00:54:00Z,27.6010,-82.7510,-0.032,1111122 
COMPS,ioos:station:USF.COMPS:EGK:1,2009-06-01T01:00:00Z,27.6010,-82.7510,-0.033,1111122 
COMPS,ioos:station:USF.COMPS:EGK:1,2009-06-01T01:06:00Z,27.6010,-82.7510,-0.035,1111122 
COMPS,ioos:station:USF.COMPS:EGK:1,2009-06-01T01:12:00Z,27.6010,-82.7510,-0.032,1111122 
COMPS,ioos:station:USF.COMPS:EGK:1,2009-06-01T01:18:00Z,27.6010,-82.7510,-0.037,1111122 
COMPS,ioos:station:USF.COMPS:EGK:1,2009-06-01T01:24:00Z,27.6010,-82.7510,-0.049,1111122 
COMPS,ioos:station:USF.COMPS:EGK:1,2009-06-01T01:30:00Z,27.6010,-82.7510,-0.059,1111122 
COMPS,ioos:station:USF.COMPS:EGK:1,2009-06-01T01:36:00Z,27.6010,-82.7510,-0.072,1111122 
COMPS,ioos:station:USF.COMPS:EGK:1,2009-06-01T01:42:00Z,27.6010,-82.7510,-0.082,1111122 
COMPS,ioos:station:USF.COMPS:EGK:1,2009-06-01T01:48:00Z,27.6010,-82.7510,-0.08,1111122 
COMPS,ioos:station:USF.COMPS:EGK:1,2009-06-01T01:54:00Z,27.6010,-82.7510,-0.085,1111122 
COMPS,ioos:station:USF.COMPS:EGK:1,2009-06-01T02:00:00Z,27.6010,-82.7510,-0.093,1111122 
COMPS,ioos:station:USF.COMPS:EGK:1,2009-06-01T02:06:00Z,27.6010,-82.7510,-0.102,1111122 
COMPS,ioos:station:USF.COMPS:EGK:1,2009-06-01T02:12:00Z,27.6010,-82.7510,-0.113,1111122 
COMPS,ioos:station:USF.COMPS:EGK:1,2009-06-01T02:18:00Z,27.6010,-82.7510,-0.125,1111122 
COMPS,ioos:station:USF.COMPS:EGK:1,2009-06-01T02:24:00Z,27.6010,-82.7510,-0.131,1111122 
COMPS,ioos:station:USF.COMPS:EGK:1,2009-06-01T02:30:00Z,27.6010,-82.7510,-0.145,1111122 
COMPS,ioos:station:USF.COMPS:EGK:1,2009-06-01T02:36:00Z,27.6010,-82.7510,-0.152,1111122 
COMPS,ioos:station:USF.COMPS:EGK:1,2009-06-01T02:42:00Z,27.6010,-82.7510,-0.161,1111122 
COMPS,ioos:station:USF.COMPS:EGK:1,2009-06-01T02:48:00Z,27.6010,-82.7510,-0.17,1111122 
COMPS,ioos:station:USF.COMPS:EGK:1,2009-06-01T02:54:00Z,27.6010,-82.7510,-0.176,1111122 
COMPS,ioos:station:USF.COMPS:EGK:1,2009-06-01T03:00:00Z,27.6010,-82.7510,-0.184,1111122 
COMPS,ioos:station:USF.COMPS:EGK:1,2009-06-01T03:06:00Z,27.6010,-82.7510,-0.186,1111122 
COMPS,ioos:station:USF.COMPS:EGK:1,2009-06-01T03:12:00Z,27.6010,-82.7510,-0.195,1111122 
COMPS,ioos:station:USF.COMPS:EGK:1,2009-06-01T03:18:00Z,27.6010,-82.7510,-0.202,1111122 
COMPS,ioos:station:USF.COMPS:EGK:1,2009-06-01T03:24:00Z,27.6010,-82.7510,-0.207,1111122 
COMPS,ioos:station:USF.COMPS:EGK:1,2009-06-01T03:30:00Z,27.6010,-82.7510,-0.213,1111122 
COMPS,ioos:station:USF.COMPS:EGK:1,2009-06-01T03:36:00Z,27.6010,-82.7510,-0.222,1111122 
COMPS,ioos:station:USF.COMPS:EGK:1,2009-06-01T03:42:00Z,27.6010,-82.7510,-0.231,1111122 
COMPS,ioos:station:USF.COMPS:EGK:1,2009-06-01T03:48:00Z,27.6010,-82.7510,-0.236,1111122 
COMPS,ioos:station:USF.COMPS:EGK:1,2009-06-01T03:54:00Z,27.6010,-82.7510,-0.237,1111122 
COMPS,ioos:station:USF.COMPS:EGK:1,2009-06-01T04:00:00Z,27.6010,-82.7510,-0.236,1111122 
COMPS,ioos:station:USF.COMPS:EGK:1,2009-06-01T04:06:00Z,27.6010,-82.7510,-0.241,1111122 
COMPS,ioos:station:USF.COMPS:EGK:1,2009-06-01T04:12:00Z,27.6010,-82.7510,-0.245,1111122 
COMPS,ioos:station:USF.COMPS:EGK:1,2009-06-01T04:18:00Z,27.6010,-82.7510,-0.248,1111122 
COMPS,ioos:station:USF.COMPS:EGK:1,2009-06-01T04:24:00Z,27.6010,-82.7510,-0.254,1111122 
COMPS,ioos:station:USF.COMPS:EGK:1,2009-06-01T04:30:00Z,27.6010,-82.7510,-0.25,1111122 
COMPS,ioos:station:USF.COMPS:EGK:1,2009-06-01T04:36:00Z,27.6010,-82.7510,-0.25,1111122 
COMPS,ioos:station:USF.COMPS:EGK:1,2009-06-01T04:42:00Z,27.6010,-82.7510,-0.251,1111122 
COMPS,ioos:station:USF.COMPS:EGK:1,2009-06-01T04:48:00Z,27.6010,-82.7510,-0.252,1111122 
COMPS,ioos:station:USF.COMPS:EGK:1,2009-06-01T04:54:00Z,27.6010,-82.7510,-0.252,1111122 
COMPS,ioos:station:USF.COMPS:EGK:1,2009-06-01T05:00:00Z,27.6010,-82.7510,-0.245,1111122 
COMPS,ioos:station:USF.COMPS:EGK:1,2009-06-01T05:06:00Z,27.6010,-82.7510,-0.246,1111122 
COMPS,ioos:station:USF.COMPS:EGK:1,2009-06-01T05:12:00Z,27.6010,-82.7510,-0.247,1111122 
COMPS,ioos:station:USF.COMPS:EGK:1,2009-06-01T05:18:00Z,27.6010,-82.7510,-0.25,1111122 
COMPS,ioos:station:USF.COMPS:EGK:1,2009-06-01T05:24:00Z,27.6010,-82.7510,-0.259,1111122 
COMPS,ioos:station:USF.COMPS:EGK:1,2009-06-01T05:30:00Z,27.6010,-82.7510,-0.263,1111122 
COMPS,ioos:station:USF.COMPS:EGK:1,2009-06-01T05:36:00Z,27.6010,-82.7510,-0.263,1111122 
COMPS,ioos:station:USF.COMPS:EGK:1,2009-06-01T05:42:00Z,27.6010,-82.7510,-0.257,1111122 
COMPS,ioos:station:USF.COMPS:EGK:1,2009-06-01T05:48:00Z,27.6010,-82.7510,-0.26,1111122 
COMPS,ioos:station:USF.COMPS:EGK:1,2009-06-01T05:54:00Z,27.6010,-82.7510,-0.259,1111122 
COMPS,ioos:station:USF.COMPS:EGK:1,2009-06-01T06:00:00Z,27.6010,-82.7510,-0.255,1111122 
COMPS,ioos:station:USF.COMPS:EGK:1,2009-06-01T06:06:00Z,27.6010,-82.7510,-0.253,1111122 
COMPS,ioos:station:USF.COMPS:EGK:1,2009-06-01T06:12:00Z,27.6010,-82.7510,-0.248,1111122 
COMPS,ioos:station:USF.COMPS:EGK:1,2009-06-01T06:18:00Z,27.6010,-82.7510,-0.236,1111122 
COMPS,ioos:station:USF.COMPS:EGK:1,2009-06-01T06:24:00Z,27.6010,-82.7510,-0.231,1111122 
COMPS,ioos:station:USF.COMPS:EGK:1,2009-06-01T06:30:00Z,27.6010,-82.7510,-0.228,1111122 
COMPS,ioos:station:USF.COMPS:EGK:1,2009-06-01T06:36:00Z,27.6010,-82.7510,-0.223,1111122 
COMPS,ioos:station:USF.COMPS:EGK:1,2009-06-01T06:42:00Z,27.6010,-82.7510,-0.215,1111122 
COMPS,ioos:station:USF.COMPS:EGK:1,2009-06-01T06:48:00Z,27.6010,-82.7510,-0.208,1111122 
COMPS,ioos:station:USF.COMPS:EGK:1,2009-06-01T06:54:00Z,27.6010,-82.7510,-0.198,1111122 
COMPS,ioos:station:USF.COMPS:EGK:1,2009-06-01T07:00:00Z,27.6010,-82.7510,-0.185,1111122 
COMPS,ioos:station:USF.COMPS:EGK:1,2009-06-01T07:06:00Z,27.6010,-82.7510,-0.182,1111122 
COMPS,ioos:station:USF.COMPS:EGK:1,2009-06-01T07:12:00Z,27.6010,-82.7510,-0.179,1111122 
COMPS,ioos:station:USF.COMPS:EGK:1,2009-06-01T07:18:00Z,27.6010,-82.7510,-0.17,1111122 
COMPS,ioos:station:USF.COMPS:EGK:1,2009-06-01T07:24:00Z,27.6010,-82.7510,-0.167,1111122 
COMPS,ioos:station:USF.COMPS:EGK:1,2009-06-01T07:30:00Z,27.6010,-82.7510,-0.171,1111122 
COMPS,ioos:station:USF.COMPS:EGK:1,2009-06-01T07:36:00Z,27.6010,-82.7510,-0.158,1111122 
COMPS,ioos:station:USF.COMPS:EGK:1,2009-06-01T07:42:00Z,27.6010,-82.7510,-0.148,1111122 
COMPS,ioos:station:USF.COMPS:EGK:1,2009-06-01T07:48:00Z,27.6010,-82.7510,-0.13,1111122 
COMPS,ioos:station:USF.COMPS:EGK:1,2009-06-01T07:54:00Z,27.6010,-82.7510,-0.141,1111122 
COMPS,ioos:station:USF.COMPS:EGK:1,2009-06-01T08:00:00Z,27.6010,-82.7510,-0.124,1111122 
COMPS,ioos:station:USF.COMPS:EGK:1,2009-06-01T08:06:00Z,27.6010,-82.7510,-0.124,1111122 
COMPS,ioos:station:USF.COMPS:EGK:1,2009-06-01T08:12:00Z,27.6010,-82.7510,-0.111,1111122 
COMPS,ioos:station:USF.COMPS:EGK:1,2009-06-01T08:18:00Z,27.6010,-82.7510,-0.107,1111122 
COMPS,ioos:station:USF.COMPS:EGK:1,2009-06-01T08:24:00Z,27.6010,-82.7510,-0.098,1111122 
COMPS,ioos:station:USF.COMPS:EGK:1,2009-06-01T08:30:00Z,27.6010,-82.7510,-0.092,1111122 
COMPS,ioos:station:USF.COMPS:EGK:1,2009-06-01T08:36:00Z,27.6010,-82.7510,-0.085,1111122 
COMPS,ioos:station:USF.COMPS:EGK:1,2009-06-01T08:42:00Z,27.6010,-82.7510,-0.073,1111122 
COMPS,ioos:station:USF.COMPS:EGK:1,2009-06-01T08:48:00Z,27.6010,-82.7510,-0.068,1111122 
COMPS,ioos:station:USF.COMPS:EGK:1,2009-06-01T08:54:00Z,27.6010,-82.7510,-0.056,1111122 
COMPS,ioos:station:USF.COMPS:EGK:1,2009-06-01T09:00:00Z,27.6010,-82.7510,-0.05,1111122 
COMPS,ioos:station:USF.COMPS:EGK:1,2009-06-01T09:06:00Z,27.6010,-82.7510,-0.042,1111122 
COMPS,ioos:station:USF.COMPS:EGK:1,2009-06-01T09:12:00Z,27.6010,-82.7510,-0.032,1111122 
COMPS,ioos:station:USF.COMPS:EGK:1,2009-06-01T09:18:00Z,27.6010,-82.7510,-0.024,1111122 
COMPS,ioos:station:USF.COMPS:EGK:1,2009-06-01T09:24:00Z,27.6010,-82.7510,-0.013,1111122 
COMPS,ioos:station:USF.COMPS:EGK:1,2009-06-01T09:30:00Z,27.6010,-82.7510,-0.016,1111122 
COMPS,ioos:station:USF.COMPS:EGK:1,2009-06-01T09:36:00Z,27.6010,-82.7510,-0.014,1111122 
COMPS,ioos:station:USF.COMPS:EGK:1,2009-06-01T09:42:00Z,27.6010,-82.7510,-0.005,1111122 
COMPS,ioos:station:USF.COMPS:EGK:1,2009-06-01T09:48:00Z,27.6010,-82.7510,0.004,1111122 
COMPS,ioos:station:USF.COMPS:EGK:1,2009-06-01T09:54:00Z,27.6010,-82.7510,0.011,1111122 
COMPS,ioos:station:USF.COMPS:EGK:1,2009-06-01T10:00:00Z,27.6010,-82.7510,0.019,1111122 
COMPS,ioos:station:USF.COMPS:EGK:1,2009-06-01T10:06:00Z,27.6010,-82.7510,0.02,1111122 
COMPS,ioos:station:USF.COMPS:EGK:1,2009-06-01T10:12:00Z,27.6010,-82.7510,0.025,1111122 
COMPS,ioos:station:USF.COMPS:EGK:1,2009-06-01T10:18:00Z,27.6010,-82.7510,0.032,1111122 
COMPS,ioos:station:USF.COMPS:EGK:1,2009-06-01T10:24:00Z,27.6010,-82.7510,0.036,1111122 
COMPS,ioos:station:USF.COMPS:EGK:1,2009-06-01T10:30:00Z,27.6010,-82.7510,0.036,1111122 
COMPS,ioos:station:USF.COMPS:EGK:1,2009-06-01T10:36:00Z,27.6010,-82.7510,0.034,1111122 
COMPS,ioos:station:USF.COMPS:EGK:1,2009-06-01T10:42:00Z,27.6010,-82.7510,0.037,1111122 
COMPS,ioos:station:USF.COMPS:EGK:1,2009-06-01T10:48:00Z,27.6010,-82.7510,0.04,1111122 
COMPS,ioos:station:USF.COMPS:EGK:1,2009-06-01T10:54:00Z,27.6010,-82.7510,0.045,1111122 
COMPS,ioos:station:USF.COMPS:EGK:1,2009-06-01T11:00:00Z,27.6010,-82.7510,0.059,1111122 
COMPS,ioos:station:USF.COMPS:EGK:1,2009-06-01T11:06:00Z,27.6010,-82.7510,0.064,1111122 
COMPS,ioos:station:USF.COMPS:EGK:1,2009-06-01T11:12:00Z,27.6010,-82.7510,0.068,1111122 
COMPS,ioos:station:USF.COMPS:EGK:1,2009-06-01T11:18:00Z,27.6010,-82.7510,0.077,1111122 
COMPS,ioos:station:USF.COMPS:EGK:1,2009-06-01T11:24:00Z,27.6010,-82.7510,0.079,1111122 
COMPS,ioos:station:USF.COMPS:EGK:1,2009-06-01T11:30:00Z,27.6010,-82.7510,0.078,1111122 
COMPS,ioos:station:USF.COMPS:EGK:1,2009-06-01T11:36:00Z,27.6010,-82.7510,0.083,1111122 
COMPS,ioos:station:USF.COMPS:EGK:1,2009-06-01T11:42:00Z,27.6010,-82.7510,0.09,1111122 
COMPS,ioos:station:USF.COMPS:EGK:1,2009-06-01T11:48:00Z,27.6010,-82.7510,0.087,1111122 
COMPS,ioos:station:USF.COMPS:EGK:1,2009-06-01T11:54:00Z,27.6010,-82.7510,0.085,1111122 
COMPS,ioos:station:USF.COMPS:EGK:1,2009-06-01T13:00:00Z,27.6010,-82.7510,0.07,1111122 
COMPS,ioos:station:USF.COMPS:EGK:1,2009-06-01T13:06:00Z,27.6010,-82.7510,0.069,1111122 
COMPS,ioos:station:USF.COMPS:EGK:1,2009-06-01T13:12:00Z,27.6010,-82.7510,0.057,1111122 
COMPS,ioos:station:USF.COMPS:EGK:1,2009-06-01T13:18:00Z,27.6010,-82.7510,0.051,1111122 
COMPS,ioos:station:USF.COMPS:EGK:1,2009-06-01T13:24:00Z,27.6010,-82.7510,0.047,1111122 
COMPS,ioos:station:USF.COMPS:EGK:1,2009-06-01T13:30:00Z,27.6010,-82.7510,0.031,1111122 
COMPS,ioos:station:USF.COMPS:EGK:1,2009-06-01T13:36:00Z,27.6010,-82.7510,0.036,1111122 
COMPS,ioos:station:USF.COMPS:EGK:1,2009-06-01T13:42:00Z,27.6010,-82.7510,0.035,1111122 
COMPS,ioos:station:USF.COMPS:EGK:1,2009-06-01T13:48:00Z,27.6010,-82.7510,0.027,1111122 
COMPS,ioos:station:USF.COMPS:EGK:1,2009-06-01T13:54:00Z,27.6010,-82.7510,0.015,1111122 
COMPS,ioos:station:USF.COMPS:EGK:1,2009-06-01T14:00:00Z,27.6010,-82.7510,-0.001,1111122 
COMPS,ioos:station:USF.COMPS:EGK:1,2009-06-01T14:06:00Z,27.6010,-82.7510,-0.009,1111122 
COMPS,ioos:station:USF.COMPS:EGK:1,2009-06-01T14:12:00Z,27.6010,-82.7510,-0.019,1111122 
COMPS,ioos:station:USF.COMPS:EGK:1,2009-06-01T14:18:00Z,27.6010,-82.7510,-0.023,1111122 
COMPS,ioos:station:USF.COMPS:EGK:1,2009-06-01T14:24:00Z,27.6010,-82.7510,-0.04,1111122 
COMPS,ioos:station:USF.COMPS:EGK:1,2009-06-01T14:30:00Z,27.6010,-82.7510,-0.043,1111122 
COMPS,ioos:station:USF.COMPS:EGK:1,2009-06-01T14:36:00Z,27.6010,-82.7510,-0.045,1111122 
COMPS,ioos:station:USF.COMPS:EGK:1,2009-06-01T14:42:00Z,27.6010,-82.7510,-0.053,1111122 
COMPS,ioos:station:USF.COMPS:EGK:1,2009-06-01T14:48:00Z,27.6010,-82.7510,-0.059,1111122 
COMPS,ioos:station:USF.COMPS:EGK:1,2009-06-01T14:54:00Z,27.6010,-82.7510,-0.056,1111122 
COMPS,ioos:station:USF.COMPS:EGK:1,2009-06-01T15:00:00Z,27.6010,-82.7510,-0.061,1111122 
COMPS,ioos:station:USF.COMPS:EGK:1,2009-06-01T15:06:00Z,27.6010,-82.7510,-0.07,1111122 
COMPS,ioos:station:USF.COMPS:EGK:1,2009-06-01T15:12:00Z,27.6010,-82.7510,-0.082,1111122 
COMPS,ioos:station:USF.COMPS:EGK:1,2009-06-01T15:18:00Z,27.6010,-82.7510,-0.091,1111122 
COMPS,ioos:station:USF.COMPS:EGK:1,2009-06-01T15:24:00Z,27.6010,-82.7510,-0.096,1111122 
COMPS,ioos:station:USF.COMPS:EGK:1,2009-06-01T15:30:00Z,27.6010,-82.7510,-0.101,1111122 
COMPS,ioos:station:USF.COMPS:EGK:1,2009-06-01T15:36:00Z,27.6010,-82.7510,-0.109,1111122 
COMPS,ioos:station:USF.COMPS:EGK:1,2009-06-01T15:42:00Z,27.6010,-82.7510,-0.116,1111122 
COMPS,ioos:station:USF.COMPS:EGK:1,2009-06-01T15:48:00Z,27.6010,-82.7510,-0.124,1111122 
COMPS,ioos:station:USF.COMPS:EGK:1,2009-06-01T15:54:00Z,27.6010,-82.7510,-0.127,1111122 
COMPS,ioos:station:USF.COMPS:EGK:1,2009-06-01T16:00:00Z,27.6010,-82.7510,-0.139,1111122 
COMPS,ioos:station:USF.COMPS:EGK:1,2009-06-01T16:06:00Z,27.6010,-82.7510,-0.15,1111122 
COMPS,ioos:station:USF.COMPS:EGK:1,2009-06-01T16:12:00Z,27.6010,-82.7510,-0.16,1111122 
COMPS,ioos:station:USF.COMPS:EGK:1,2009-06-01T16:18:00Z,27.6010,-82.7510,-0.167,1111122 
COMPS,ioos:station:USF.COMPS:EGK:1,2009-06-01T16:24:00Z,27.6010,-82.7510,-0.179,1111122 
COMPS,ioos:station:USF.COMPS:EGK:1,2009-06-01T16:30:00Z,27.6010,-82.7510,-0.196,1111122 
COMPS,ioos:station:USF.COMPS:EGK:1,2009-06-01T16:36:00Z,27.6010,-82.7510,-0.21,1111122 
COMPS,ioos:station:USF.COMPS:EGK:1,2009-06-01T16:42:00Z,27.6010,-82.7510,-0.21,1111122 
COMPS,ioos:station:USF.COMPS:EGK:1,2009-06-01T16:48:00Z,27.6010,-82.7510,-0.212,1111122 
COMPS,ioos:station:USF.COMPS:EGK:1,2009-06-01T16:54:00Z,27.6010,-82.7510,-0.215,1111122 
COMPS,ioos:station:USF.COMPS:EGK:1,2009-06-01T17:00:00Z,27.6010,-82.7510,-0.22,1111122 
COMPS,ioos:station:USF.COMPS:EGK:1,2009-06-01T17:06:00Z,27.6010,-82.7510,-0.228,1111122 
COMPS,ioos:station:USF.COMPS:EGK:1,2009-06-01T17:12:00Z,27.6010,-82.7510,-0.238,1111122 
COMPS,ioos:station:USF.COMPS:EGK:1,2009-06-01T17:18:00Z,27.6010,-82.7510,-0.251,1111122 
COMPS,ioos:station:USF.COMPS:EGK:1,2009-06-01T17:24:00Z,27.6010,-82.7510,-0.26,1111122 
COMPS,ioos:station:USF.COMPS:EGK:1,2009-06-01T17:30:00Z,27.6010,-82.7510,-0.268,1111122 
COMPS,ioos:station:USF.COMPS:EGK:1,2009-06-01T17:36:00Z,27.6010,-82.7510,-0.27,1111122 
COMPS,ioos:station:USF.COMPS:EGK:1,2009-06-01T17:42:00Z,27.6010,-82.7510,-0.281,1111122 
COMPS,ioos:station:USF.COMPS:EGK:1,2009-06-01T17:48:00Z,27.6010,-82.7510,-0.274,1111122 
COMPS,ioos:station:USF.COMPS:EGK:1,2009-06-01T17:54:00Z,27.6010,-82.7510,-0.277,1111122 
COMPS,ioos:station:USF.COMPS:EGK:1,2009-06-01T18:00:00Z,27.6010,-82.7510,-0.277,1111122 
COMPS,ioos:station:USF.COMPS:EGK:1,2009-06-01T18:06:00Z,27.6010,-82.7510,-0.279,1111122 
COMPS,ioos:station:USF.COMPS:EGK:1,2009-06-01T18:12:00Z,27.6010,-82.7510,-0.288,1111122 
COMPS,ioos:station:USF.COMPS:EGK:1,2009-06-01T18:18:00Z,27.6010,-82.7510,-0.286,1111122 
COMPS,ioos:station:USF.COMPS:EGK:1,2009-06-01T18:24:00Z,27.6010,-82.7510,-0.294,1111122 
COMPS,ioos:station:USF.COMPS:EGK:1,2009-06-01T18:30:00Z,27.6010,-82.7510,-0.292,1111122 
COMPS,ioos:station:USF.COMPS:EGK:1,2009-06-01T18:36:00Z,27.6010,-82.7510,-0.295,1111122 
COMPS,ioos:station:USF.COMPS:EGK:1,2009-06-01T18:42:00Z,27.6010,-82.7510,-0.295,1111122 
COMPS,ioos:station:USF.COMPS:EGK:1,2009-06-01T18:48:00Z,27.6010,-82.7510,-0.289,1111122 
COMPS,ioos:station:USF.COMPS:EGK:1,2009-06-01T18:54:00Z,27.6010,-82.7510,-0.288,1111122 
COMPS,ioos:station:USF.COMPS:EGK:1,2009-06-01T19:00:00Z,27.6010,-82.7510,-0.283,1111122 
COMPS,ioos:station:USF.COMPS:EGK:1,2009-06-01T19:06:00Z,27.6010,-82.7510,-0.283,1111122 
COMPS,ioos:station:USF.COMPS:EGK:1,2009-06-01T19:12:00Z,27.6010,-82.7510,-0.286,1111122 
COMPS,ioos:station:USF.COMPS:EGK:1,2009-06-01T19:18:00Z,27.6010,-82.7510,-0.284,1111122 
COMPS,ioos:station:USF.COMPS:EGK:1,2009-06-01T19:24:00Z,27.6010,-82.7510,-0.29,1111122 
COMPS,ioos:station:USF.COMPS:EGK:1,2009-06-01T19:30:00Z,27.6010,-82.7510,-0.283,1111122 
COMPS,ioos:station:USF.COMPS:EGK:1,2009-06-01T19:36:00Z,27.6010,-82.7510,-0.292,1111122 
COMPS,ioos:station:USF.COMPS:EGK:1,2009-06-01T19:42:00Z,27.6010,-82.7510,-0.285,1111122 
COMPS,ioos:station:USF.COMPS:EGK:1,2009-06-01T19:48:00Z,27.6010,-82.7510,-0.275,1111122 
COMPS,ioos:station:USF.COMPS:EGK:1,2009-06-01T19:54:00Z,27.6010,-82.7510,-0.271,1111122 
COMPS,ioos:station:USF.COMPS:EGK:1,2009-06-01T20:00:00Z,27.6010,-82.7510,-0.265,1111122 
COMPS,ioos:station:USF.COMPS:EGK:1,2009-06-01T20:06:00Z,27.6010,-82.7510,-0.264,1111122 
COMPS,ioos:station:USF.COMPS:EGK:1,2009-06-01T20:12:00Z,27.6010,-82.7510,-0.245,1111122 
COMPS,ioos:station:USF.COMPS:EGK:1,2009-06-01T20:18:00Z,27.6010,-82.7510,-0.245,1111122 
COMPS,ioos:station:USF.COMPS:EGK:1,2009-06-01T20:24:00Z,27.6010,-82.7510,-0.235,1111122 
COMPS,ioos:station:USF.COMPS:EGK:1,2009-06-01T20:30:00Z,27.6010,-82.7510,-0.233,1111122 
COMPS,ioos:station:USF.COMPS:EGK:1,2009-06-01T20:36:00Z,27.6010,-82.7510,-0.229,1111122 
COMPS,ioos:station:USF.COMPS:EGK:1,2009-06-01T20:42:00Z,27.6010,-82.7510,-0.22,1111122 
COMPS,ioos:station:USF.COMPS:EGK:1,2009-06-01T20:48:00Z,27.6010,-82.7510,-0.213,1111122 
COMPS,ioos:station:USF.COMPS:EGK:1,2009-06-01T20:54:00Z,27.6010,-82.7510,-0.214,1111122 
COMPS,ioos:station:USF.COMPS:EGK:1,2009-06-01T21:00:00Z,27.6010,-82.7510,-0.209,1111122 
COMPS,ioos:station:USF.COMPS:EGK:1,2009-06-01T21:06:00Z,27.6010,-82.7510,-0.207,1111122 
COMPS,ioos:station:USF.COMPS:EGK:1,2009-06-01T21:12:00Z,27.6010,-82.7510,-0.209,1111122 
COMPS,ioos:station:USF.COMPS:EGK:1,2009-06-01T21:18:00Z,27.6010,-82.7510,-0.206,1111122 
COMPS,ioos:station:USF.COMPS:EGK:1,2009-06-01T21:24:00Z,27.6010,-82.7510,-0.2,1111122 
COMPS,ioos:station:USF.COMPS:EGK:1,2009-06-01T21:30:00Z,27.6010,-82.7510,-0.196,1111122 
COMPS,ioos:station:USF.COMPS:EGK:1,2009-06-01T21:36:00Z,27.6010,-82.7510,-0.181,1111122 
COMPS,ioos:station:USF.COMPS:EGK:1,2009-06-01T21:42:00Z,27.6010,-82.7510,-0.174,1111122 
COMPS,ioos:station:USF.COMPS:EGK:1,2009-06-01T21:48:00Z,27.6010,-82.7510,-0.168,1111122 
COMPS,ioos:station:USF.COMPS:EGK:1,2009-06-01T21:54:00Z,27.6010,-82.7510,-0.172,1111122 
COMPS,ioos:station:USF.COMPS:EGK:1,2009-06-01T22:00:00Z,27.6010,-82.7510,-0.168,1111122 
COMPS,ioos:station:USF.COMPS:EGK:1,2009-06-01T22:06:00Z,27.6010,-82.7510,-0.166,1111122 
COMPS,ioos:station:USF.COMPS:EGK:1,2009-06-01T22:12:00Z,27.6010,-82.7510,-0.16,1111122 
COMPS,ioos:station:USF.COMPS:EGK:1,2009-06-01T22:18:00Z,27.6010,-82.7510,-0.152,1111122 
COMPS,ioos:station:USF.COMPS:EGK:1,2009-06-01T22:24:00Z,27.6010,-82.7510,-0.142,1111122 
COMPS,ioos:station:USF.COMPS:EGK:1,2009-06-01T22:30:00Z,27.6010,-82.7510,-0.141,1111122 
COMPS,ioos:station:USF.COMPS:EGK:1,2009-06-01T22:36:00Z,27.6010,-82.7510,-0.136,1111122 
COMPS,ioos:station:USF.COMPS:EGK:1,2009-06-01T22:42:00Z,27.6010,-82.7510,-0.148,1111122 
COMPS,ioos:station:USF.COMPS:EGK:1,2009-06-01T22:48:00Z,27.6010,-82.7510,-0.127,1111122 
COMPS,ioos:station:USF.COMPS:EGK:1,2009-06-01T22:54:00Z,27.6010,-82.7510,-0.121,1111122 
COMPS,ioos:station:USF.COMPS:EGK:1,2009-06-01T23:00:00Z,27.6010,-82.7510,-0.114,1111122 
COMPS,ioos:station:USF.COMPS:EGK:1,2009-06-01T23:06:00Z,27.6010,-82.7510,-0.1,1111122 
COMPS,ioos:station:USF.COMPS:EGK:1,2009-06-01T23:12:00Z,27.6010,-82.7510,-0.1,1111122 
COMPS,ioos:station:USF.COMPS:EGK:1,2009-06-01T23:18:00Z,27.6010,-82.7510,-0.084,1111122 
COMPS,ioos:station:USF.COMPS:EGK:1,2009-06-01T23:24:00Z,27.6010,-82.7510,-0.088,1111122 
COMPS,ioos:station:USF.COMPS:EGK:1,2009-06-01T23:30:00Z,27.6010,-82.7510,-0.079,1111122 
COMPS,ioos:station:USF.COMPS:EGK:1,2009-06-01T23:36:00Z,27.6010,-82.7510,-0.075,1111122 
COMPS,ioos:station:USF.COMPS:EGK:1,2009-06-01T23:42:00Z,27.6010,-82.7510,-0.083,1111122 
COMPS,ioos:station:USF.COMPS:EGK:1,2009-06-01T23:48:00Z,27.6010,-82.7510,-0.065,1111122 
COMPS,ioos:station:USF.COMPS:EGK:1,2009-06-01T23:54:00Z,27.6010,-82.7510,-0.061,1111122 
COMPS,ioos:station:USF.COMPS:EGK:1,2009-06-02T00:00:00Z,27.6010,-82.7510,-0.062,1111122 
COMPS,ioos:station:USF.COMPS:EGK:1,2009-06-02T00:06:00Z,27.6010,-82.7510,-0.059,1111122 
COMPS,ioos:station:USF.COMPS:EGK:1,2009-06-02T00:12:00Z,27.6010,-82.7510,-0.058,1111122 
COMPS,ioos:station:USF.COMPS:EGK:1,2009-06-02T00:18:00Z,27.6010,-82.7510,-0.058,1111122 
COMPS,ioos:station:USF.COMPS:EGK:1,2009-06-02T00:24:00Z,27.6010,-82.7510,-0.053,1111122 
COMPS,ioos:station:USF.COMPS:EGK:1,2009-06-02T00:30:00Z,27.6010,-82.7510,-0.047,1111122 
COMPS,ioos:station:USF.COMPS:EGK:1,2009-06-02T00:36:00Z,27.6010,-82.7510,-0.051,1111122 
COMPS,ioos:station:USF.COMPS:EGK:1,2009-06-02T00:42:00Z,27.6010,-82.7510,-0.047,1111122 
COMPS,ioos:station:USF.COMPS:EGK:1,2009-06-02T00:48:00Z,27.6010,-82.7510,-0.047,1111122 
COMPS,ioos:station:USF.COMPS:EGK:1,2009-06-02T00:54:00Z,27.6010,-82.7510,-0.049,1111122 
COMPS,ioos:station:USF.COMPS:EGK:1,2009-06-02T01:00:00Z,27.6010,-82.7510,-0.057,1111122 
COMPS,ioos:station:USF.COMPS:EGK:1,2009-06-02T01:06:00Z,27.6010,-82.7510,-0.052,1111122 
COMPS,ioos:station:USF.COMPS:EGK:1,2009-06-02T01:12:00Z,27.6010,-82.7510,-0.043,1111122 
COMPS,ioos:station:USF.COMPS:EGK:1,2009-06-02T01:18:00Z,27.6010,-82.7510,-0.043,1111122 
COMPS,ioos:station:USF.COMPS:EGK:1,2009-06-02T01:24:00Z,27.6010,-82.7510,-0.043,1111122 
COMPS,ioos:station:USF.COMPS:EGK:1,2009-06-02T01:30:00Z,27.6010,-82.7510,-0.044,1111122 
COMPS,ioos:station:USF.COMPS:EGK:1,2009-06-02T01:36:00Z,27.6010,-82.7510,-0.05,1111122 
COMPS,ioos:station:USF.COMPS:EGK:1,2009-06-02T01:42:00Z,27.6010,-82.7510,-0.05,1111122 
COMPS,ioos:station:USF.COMPS:EGK:1,2009-06-02T01:48:00Z,27.6010,-82.7510,-0.05,1111122 
COMPS,ioos:station:USF.COMPS:EGK:1,2009-06-02T01:54:00Z,27.6010,-82.7510,-0.05,1111122 
COMPS,ioos:station:USF.COMPS:EGK:1,2009-06-02T02:00:00Z,27.6010,-82.7510,-0.055,1111122 
COMPS,ioos:station:USF.COMPS:EGK:1,2009-06-02T02:06:00Z,27.6010,-82.7510,-0.053,1111122 
COMPS,ioos:station:USF.COMPS:EGK:1,2009-06-02T02:12:00Z,27.6010,-82.7510,-0.056,1111122 
COMPS,ioos:station:USF.COMPS:EGK:1,2009-06-02T02:18:00Z,27.6010,-82.7510,-0.061,1111122 
COMPS,ioos:station:USF.COMPS:EGK:1,2009-06-02T02:24:00Z,27.6010,-82.7510,-0.067,1111122 
COMPS,ioos:station:USF.COMPS:EGK:1,2009-06-02T02:30:00Z,27.6010,-82.7510,-0.068,1111122 
COMPS,ioos:station:USF.COMPS:EGK:1,2009-06-02T02:36:00Z,27.6010,-82.7510,-0.074,1111122 
COMPS,ioos:station:USF.COMPS:EGK:1,2009-06-02T02:42:00Z,27.6010,-82.7510,-0.075,1111122 
COMPS,ioos:station:USF.COMPS:EGK:1,2009-06-02T02:48:00Z,27.6010,-82.7510,-0.086,1111122 
COMPS,ioos:station:USF.COMPS:EGK:1,2009-06-02T02:54:00Z,27.6010,-82.7510,-0.091,1111122 
COMPS,ioos:station:USF.COMPS:EGK:1,2009-06-02T03:00:00Z,27.6010,-82.7510,-0.097,1111122 
COMPS,ioos:station:USF.COMPS:EGK:1,2009-06-02T03:06:00Z,27.6010,-82.7510,-0.102,1111122 
COMPS,ioos:station:USF.COMPS:EGK:1,2009-06-02T03:12:00Z,27.6010,-82.7510,-0.103,1111122 
COMPS,ioos:station:USF.COMPS:EGK:1,2009-06-02T03:18:00Z,27.6010,-82.7510,-0.11,1111122 
COMPS,ioos:station:USF.COMPS:EGK:1,2009-06-02T03:24:00Z,27.6010,-82.7510,-0.115,1111122 
COMPS,ioos:station:USF.COMPS:EGK:1,2009-06-02T03:30:00Z,27.6010,-82.7510,-0.116,1111122 
COMPS,ioos:station:USF.COMPS:EGK:1,2009-06-02T03:36:00Z,27.6010,-82.7510,-0.122,1111122 
COMPS,ioos:station:USF.COMPS:EGK:1,2009-06-02T03:42:00Z,27.6010,-82.7510,-0.131,1111122 
COMPS,ioos:station:USF.COMPS:EGK:1,2009-06-02T03:48:00Z,27.6010,-82.7510,-0.139,1111122 